University AP, Davis, CA, CA

8:46 AM PST on December 09, 2019 (GMT -0800)
University AP, Davis, CA

Weather History for KEDU - October, 2019

Change the Weather History Date:

Wednesday, October 23, 2019

  Actual Average (KSMF) Record (KSMF)
Temperature  
Mean Temperature 74 °F -  
Max Temperature 86 °F 75 °F 89 °F (1965)
Min Temperature 62 °F 49 °F 38 °F (1961)
Cooling Degree Days 9    
Growing Degree Days 24 (Base 50)    
Moisture  
Dew Point 36 °F    
Average Humidity 28    
Maximum Humidity 55    
Minimum Humidity 11    
Precipitation  
Precipitation 0.00 in - - ()
Sea Level Pressure  
Sea Level Pressure 29.98 in    
Wind  
Wind Speed 10 mph ()    
Max Wind Speed 21 mph    
Max Gust Speed 33 mph    
Visibility 10.0 miles    
Events      
Averages and records for this station are not official NWS values.
T = Trace of Precipitation, MM = Missing Value Source: Averaged Metar Reports

Daily Weather History Graph

Daily Weather History Graph

Search for Another Location

Airport or City:

Astronomy

Oct. 23, 2019 Rise Set
Actual Time 7:24 AM PDT 6:18 PM PDT
Civil Twilight 6:57 AM PDT 6:45 PM PDT
Nautical Twilight 6:26 AM PDT 7:16 PM PDT
Astronomical Twilight 5:55 AM PDT 7:46 PM PDT
Moon 1:54 AM PDT (10/23) 4:07 PM PDT (10/23)
Length of Visible Light 11h 48m
Length of Day
10h 54m
Waning Crescent, 25% of the Moon is Illuminated
Oct 23
Waning Crescent
Oct 27
New
Nov 4
First Quarter
Nov 12
Full
Nov 19
Last Quarter

Hourly Weather History & Observations

Time (PDT) Temp. Dew Point Humidity Pressure Visibility Wind Dir Wind Speed Gust Speed Precip Events Conditions
12:10 AM 75.2 °F 44.6 °F 34% 30.02 in 10.0 mi North 10.4 mph 16.1 mph N/A   Clear
12:30 AM 75.2 °F 44.6 °F 34% 30.03 in 10.0 mi North 10.4 mph 16.1 mph N/A   Clear
1:10 AM 73.4 °F 46.4 °F 38% 30.04 in 10.0 mi NE 6.9 mph - N/A   Clear
1:50 AM 68.0 °F 46.4 °F 46% 30.04 in 10.0 mi NNE 8.1 mph - N/A   Clear
2:10 AM 66.2 °F 46.4 °F 49% 30.04 in 10.0 mi NNE 6.9 mph - N/A   Clear
2:30 AM 66.2 °F 46.4 °F 49% 30.04 in 10.0 mi NNE 6.9 mph - N/A   Clear
2:50 AM 66.2 °F 46.4 °F 49% 30.04 in 10.0 mi North 5.8 mph - N/A   Clear
3:10 AM 66.2 °F 46.4 °F 49% 30.03 in 10.0 mi NNW 3.5 mph - N/A   Clear
3:50 AM 68.0 °F 46.4 °F 46% 30.03 in 10.0 mi North 5.8 mph - N/A   Clear
4:10 AM 66.2 °F 48.2 °F 52% 30.02 in 10.0 mi North 6.9 mph - N/A   Clear
4:30 AM 68.0 °F 46.4 °F 46% 30.02 in 10.0 mi North 10.4 mph - N/A   Clear
4:50 AM 68.0 °F 46.4 °F 46% 30.02 in 10.0 mi North 6.9 mph - N/A   Clear
5:10 AM 66.2 °F 46.4 °F 49% 30.02 in 10.0 mi NNE 9.2 mph - N/A   Clear
5:30 AM 66.2 °F 46.4 °F 49% 30.02 in 10.0 mi North 6.9 mph - N/A   Clear
5:50 AM 66.2 °F 46.4 °F 49% 30.02 in 10.0 mi NNE 5.8 mph - N/A   Clear
6:10 AM 62.6 °F 46.4 °F 55% 30.02 in 10.0 mi NNE 5.8 mph - N/A   Clear
6:30 AM 66.2 °F 46.4 °F 49% 30.02 in 10.0 mi North 6.9 mph - N/A   Clear
6:50 AM 66.2 °F 44.6 °F 46% 30.02 in 10.0 mi North 3.5 mph - N/A   Clear
7:10 AM 68.0 °F 44.6 °F 43% 30.02 in 10.0 mi ENE 4.6 mph - N/A   Clear
7:30 AM 66.2 °F 44.6 °F 46% 30.02 in 10.0 mi NE 4.6 mph - N/A   Clear
7:50 AM 66.2 °F 44.6 °F 46% 30.02 in 10.0 mi North 6.9 mph - N/A   Clear
8:10 AM 68.0 °F 44.6 °F 43% 30.02 in 10.0 mi North 6.9 mph - N/A   Clear
8:30 AM 68.0 °F 44.6 °F 43% 30.01 in 10.0 mi North 9.2 mph - N/A   Clear
8:50 AM 69.8 °F 44.6 °F 40% 30.02 in 10.0 mi North 10.4 mph - N/A   Clear
9:10 AM 71.6 °F 42.8 °F 35% 30.02 in 10.0 mi North 11.5 mph 18.4 mph N/A   Clear
9:30 AM 73.4 °F 41.0 °F 31% 30.02 in 10.0 mi North 12.7 mph - N/A   Clear
9:50 AM 73.4 °F 41.0 °F 31% 30.02 in 10.0 mi North 13.8 mph 24.2 mph N/A   Clear
10:10 AM 73.4 °F 41.0 °F 31% 30.02 in 10.0 mi North 18.4 mph 28.8 mph N/A   Clear
10:30 AM 75.2 °F 41.0 °F 29% 30.02 in 10.0 mi North 15.0 mph 26.5 mph N/A   Clear
10:50 AM 75.2 °F 41.0 °F 29% 30.02 in 10.0 mi North 13.8 mph 20.7 mph N/A   Clear
11:10 AM 77.0 °F 41.0 °F 28% 30.02 in 10.0 mi North 17.3 mph - N/A   Clear
11:30 AM 77.0 °F 39.2 °F 26% 30.01 in 10.0 mi North 17.3 mph 24.2 mph N/A   Clear
11:50 AM 80.6 °F 39.2 °F 23% 30.01 in 10.0 mi North 18.4 mph 24.2 mph N/A   Clear
12:10 PM 80.6 °F 39.2 °F 23% 30.00 in 10.0 mi North 13.8 mph 21.9 mph N/A   Clear
12:30 PM 82.4 °F 37.4 °F 20% 30.00 in 9.0 mi NNW 18.4 mph 25.3 mph N/A   Clear
12:50 PM 82.4 °F 37.4 °F 20% 29.99 in 10.0 mi NNE 20.7 mph 25.3 mph N/A   Clear
1:10 PM 82.4 °F 35.6 °F 19% 29.98 in 9.0 mi North 18.4 mph 23.0 mph N/A   Clear
1:30 PM 84.2 °F 35.6 °F 18% 29.97 in 10.0 mi North 16.1 mph 21.9 mph N/A   Clear
1:50 PM 84.2 °F 35.6 °F 18% 29.96 in 10.0 mi North 15.0 mph 21.9 mph N/A   Clear
2:10 PM 84.2 °F 33.8 °F 16% 29.95 in 10.0 mi North 15.0 mph 24.2 mph N/A   Clear
2:30 PM 84.2 °F 33.8 °F 16% 29.94 in 10.0 mi NNW 15.0 mph 23.0 mph N/A   Clear
2:50 PM 86.0 °F 33.8 °F 15% 29.93 in 10.0 mi North 16.1 mph 23.0 mph N/A   Clear
3:10 PM 86.0 °F 32.0 °F 14% 29.93 in 10.0 mi North 17.3 mph 24.2 mph N/A   Clear
3:30 PM 86.0 °F 32.0 °F 14% 29.92 in 10.0 mi North 18.4 mph 27.6 mph N/A   Clear
3:50 PM 86.0 °F 30.2 °F 13% 29.91 in 9.0 mi North 17.3 mph 33.4 mph N/A   Clear
4:10 PM 86.0 °F 28.4 °F 12% 29.91 in 10.0 mi North 19.6 mph 26.5 mph N/A   Clear
4:30 PM 84.2 °F 26.6 °F 12% 29.91 in 10.0 mi North 16.1 mph 25.3 mph N/A   Clear
4:50 PM 84.2 °F 24.8 °F 11% 29.91 in 10.0 mi NNW 15.0 mph 26.5 mph N/A   Clear
5:10 PM 84.2 °F 24.8 °F 11% 29.90 in 10.0 mi NNW 15.0 mph 27.6 mph N/A   Clear
5:30 PM 84.2 °F 24.8 °F 11% 29.90 in 10.0 mi NNW 16.1 mph 23.0 mph N/A   Clear
5:50 PM 82.4 °F 23.0 °F 11% 29.90 in 10.0 mi NNW 15.0 mph 26.5 mph N/A   Clear
6:10 PM 82.4 °F 23.0 °F 11% 29.90 in 10.0 mi NNW 18.4 mph 25.3 mph N/A   Clear
6:30 PM 80.6 °F 23.0 °F 12% 29.90 in 10.0 mi North 15.0 mph 26.5 mph N/A   Clear
6:50 PM 80.6 °F 23.0 °F 12% 29.90 in 10.0 mi NNW 16.1 mph 25.3 mph N/A   Clear
7:30 PM 80.6 °F 23.0 °F 12% 29.91 in 10.0 mi NNW 15.0 mph 21.9 mph N/A   Clear
7:50 PM 78.8 °F 23.0 °F 13% 29.91 in 10.0 mi NNW 15.0 mph 24.2 mph N/A   Clear
8:10 PM 78.8 °F 23.0 °F 13% 29.91 in 10.0 mi North 17.3 mph 26.5 mph N/A   Clear
8:30 PM 77.0 °F 23.0 °F 13% 29.91 in 10.0 mi North 15.0 mph 23.0 mph N/A   Clear
8:50 PM 77.0 °F 24.8 °F 14% 29.92 in 10.0 mi North 13.8 mph 18.4 mph N/A   Clear
9:10 PM 75.2 °F 24.8 °F 15% 29.93 in 10.0 mi NNW 10.4 mph 19.6 mph N/A   Clear
9:30 PM 75.2 °F 24.8 °F 15% 29.93 in 10.0 mi NNW 11.5 mph - N/A   Clear
9:55 PM 73.4 °F 24.8 °F 16% 29.94 in 10.0 mi NNW 13.8 mph 21.9 mph N/A   Clear
10:10 PM 73.4 °F 24.8 °F 16% 29.94 in 10.0 mi NNW 12.7 mph 19.6 mph N/A   Clear
10:50 PM 73.4 °F 23.0 °F 15% 29.95 in 10.0 mi NNW 11.5 mph - N/A   Clear
11:10 PM 71.6 °F 23.0 °F 16% 29.96 in 10.0 mi NNW 11.5 mph 16.1 mph N/A   Clear
11:30 PM 71.6 °F 23.0 °F 16% 29.96 in 10.0 mi NNW 11.5 mph - N/A   Clear
11:50 PM 71.6 °F 23.0 °F 16% 29.96 in 10.0 mi NNW 15.0 mph 20.7 mph N/A   Clear